[[{"header":{"parameterUnit":"m.s-1","parameterCategory":1,"la1":30.2991,"la2":30.254,"lo1":-89.0895,"lo2":-89.0444,"dy":0.0017,"dx":0.0017,"nx":28,"ny":28,"refTime":"2025-01-10T03:00:00:Z","depth":0,"parameterNumber":2,"parameterNumberName":"U-component_of_WINDS"},"data":[0,0,0,0,0,0,0,0,0,0,0,0,0,0,0,0,0,0,0,0,0,0,0,0,0,0,0,0,0,0,0,0,0,0,0,0,0,0,0,0,0,0,0,0,0,0,0,0,0,0,0,0,0,0,0,0,0,0,1.7176,1.7176,0,1.7145,1.7144,1.7144,1.7104,1.7104,1.7103,1.7102,1.7069,1.7069,1.7068,0,0,0,0,0,0,0,0,0,0,0,0,0,1.7201,1.7201,1.7176,1.7176,1.7175,1.7145,1.7144,1.7144,1.7104,1.7104,1.7103,1.7102,1.7069,1.7069,1.7068,0,0,0,0,0,0,0,0,0,0,0,0,0,1.7182,1.7201,1.7176,1.7152,1.7149,1.7145,1.7144,1.7144,1.7105,1.7104,1.7103,1.7102,1.7069,1.7069,1.7068,1.7084,0,0,1.7067,1.7067,0,0,0,0,0,0,0,0,1.7183,1.7181,1.7156,1.7153,1.7151,1.7127,1.7141,1.7124,1.7105,1.7121,1.7102,1.7101,1.7089,1.7087,1.7083,1.7083,1.7081,1.7067,1.7067,1.7066,1.7066,0,0,0,0,0,0,0,1.7185,1.7182,1.7163,1.7155,1.7152,1.7142,1.7139,1.7137,1.7111,1.712,1.7117,1.7114,1.7087,1.7084,1.7082,1.7081,1.7067,1.7066,1.7066,1.7066,1.7094,1.7095,0,0,0,0,0,0,1.719,1.7184,1.7164,1.7163,1.7165,1.7143,1.7139,1.7136,1.7111,1.7106,1.7115,1.7112,1.7085,1.7083,1.7081,1.7098,1.7066,1.7066,1.7066,1.7093,1.7094,1.7095,0,0,0,0,0,0,1.719,1.7188,1.7166,1.7172,1.7169,1.7143,1.7141,1.7136,1.7132,1.7107,1.7102,1.7116,1.7084,1.7081,1.7084,1.7097,1.7066,1.7065,1.7092,1.7093,1.7094,1.7134,0,0,0,0,0,0,1.7191,1.7189,1.7195,1.7173,1.7169,1.717,1.7141,1.7136,1.7131,1.7128,1.7106,1.7102,1.7083,1.7085,1.7084,1.7095,1.7065,1.709,1.7092,1.7094,1.7131,1.7137,1.7141,0,0,0,0,0,1.7192,1.7206,1.7195,1.7193,1.7175,1.7171,1.7168,1.7146,1.7132,1.7138,1.7122,1.7103,1.7096,1.7086,1.7084,1.7096,1.7089,1.7092,1.7094,1.7129,1.7136,1.7141,0,0,0,0,0,0,1.7229,1.7203,1.719,1.7198,1.7187,1.7164,1.717,1.7154,1.7146,1.7143,1.7116,1.7112,1.7118,1.7107,1.7096,1.7111,1.709,1.7092,1.7117,1.7123,1.7128,1.713,1.7065,0,0,0,0,0,1.7239,1.7237,1.7214,1.7223,1.7218,1.7196,1.7193,1.7177,1.7165,1.716,1.7144,1.7132,1.7128,1.7125,1.7119,1.713,1.7125,1.7138,1.7142,1.7147,1.7148,1.7154,1.716,1.7102,1.7102,1.7102,0,0,1.7257,1.7243,1.7243,1.723,1.722,1.7219,1.7192,1.7192,1.7191,1.7159,1.7161,1.715,1.7135,1.7142,1.7145,1.7134,1.7163,1.7149,1.7153,1.7152,1.7157,1.7163,1.7167,1.7104,1.7104,1.7104,0,0,1.729,1.7279,1.7286,1.7277,1.7262,1.7247,1.7249,1.7229,1.722,1.7222,1.7199,1.7198,1.719,1.7181,1.7175,1.7207,1.7189,1.7206,1.7231,1.7237,1.7242,1.7246,1.7257,1.7262,1.7208,1.7208,1.7209,0,1.7315,1.7313,1.7291,1.7293,1.7288,1.7261,1.7268,1.726,1.7244,1.7241,1.7229,1.722,1.7208,1.7213,1.7221,1.7218,1.7219,1.7208,1.7243,1.7247,1.725,1.7261,1.7265,1.7211,1.721,1.721,1.721,0,1.7344,1.7344,1.7351,1.7337,1.7333,1.7337,1.7316,1.7315,1.7301,1.7287,1.729,1.7275,1.7266,1.7267,1.7252,1.727,1.7264,1.7248,1.7226,1.7258,1.7268,1.7272,1.7214,1.7213,1.7212,1.7212,0,0,1.7398,1.7374,1.7377,1.7371,1.7354,1.7352,1.7356,1.7348,1.7348,1.7339,1.7341,1.7336,1.7322,1.7316,1.73,1.7306,1.7333,1.7289,1.7288,1.7298,1.7353,1.7364,1.737,1.7321,1.7322,1.7323,1.7354,0,1.7428,1.7433,1.7414,1.7424,1.7423,1.7398,1.7401,1.7391,1.7379,1.7377,1.7364,1.7361,1.7342,1.7338,1.7343,1.7329,1.7343,1.7326,1.7323,1.7323,1.7327,1.7375,1.7387,1.7417,1.7358,1.7358,1.7359,0,1.7463,1.7457,1.7466,1.745,1.7449,1.7452,1.7444,1.7443,1.7431,1.7422,1.7417,1.7399,1.7402,1.7382,1.7386,1.7374,1.7372,1.7365,1.7366,1.7364,1.7342,1.7374,1.7426,1.743,1.7364,1.7364,1.7364,0,1.7501,1.7495,1.75,1.7496,1.7477,1.748,1.7472,1.746,1.7457,1.745,1.7448,1.7442,1.7438,1.7434,1.7416,1.7403,1.7422,1.74,1.7414,1.7415,1.7418,1.7418,1.747,1.7418,1.7418,1.7418,1.7418,0,1.7536,1.7543,1.7517,1.7521,1.7528,1.7507,1.7515,1.7505,1.7494,1.7495,1.7474,1.7475,1.7451,1.745,1.7436,1.7441,1.744,1.7432,1.7428,1.7434,1.7435,1.7431,1.7429,1.7419,1.7419,1.7418,1.7418,0,1.7579,1.7563,1.7567,1.7549,1.7545,1.7551,1.7536,1.7539,1.7526,1.7528,1.7527,1.7507,1.7505,1.7487,1.748,1.7471,1.7481,1.7474,1.7485,1.7483,1.7498,1.7496,1.7549,1.7555,1.75,1.75,1.7501,0,1.7602,1.7607,1.7591,1.759,1.7584,1.7583,1.758,1.756,1.7558,1.7547,1.7551,1.7547,1.7543,1.7541,1.7526,1.7521,1.7513,1.7532,1.7512,1.7518,1.7513,1.7513,1.7513,1.7535,1.7536,1.7537,1.7537,0,1.7645,1.7637,1.7634,1.7629,1.7626,1.7621,1.7615,1.7615,1.7593,1.7593,1.759,1.7587,1.7582,1.7578,1.7571,1.7563,1.7547,1.7544,1.7547,1.7552,1.7559,1.7555,1.7496,1.7542,1.7542,1.7541,1.7541,1.7541,1.7678,1.7682,1.7671,1.7669,1.7663,1.7658,1.7659,1.7648,1.7646,1.764,1.7628,1.7628,1.7618,1.7607,1.7601,1.7601,1.7591,1.7595,1.7596,1.7597,1.76,1.756,1.7599,1.7599,1.7599,1.7599,1.7599,0,1.772,1.7712,1.7711,1.7703,1.7701,1.7687,1.768,1.7679,1.768,1.7672,1.7669,1.7667,1.7664,1.765,1.7646,1.7649,1.7641,1.7648,1.7647,1.7646,1.7609,1.7607,1.7654,1.7654,1.7654,1.7654,1.7654,1.7654,1.7741,1.7747,1.7738,1.774,1.7733,1.7733,1.773,1.7725,1.7719,1.7718,1.7716,1.7707,1.7697,1.7692,1.7689,1.7685,1.7685,1.7694,1.7688,1.7654,1.7648,1.7643,1.7641,1.7694,1.7695,1.7724,1.7724,1.7725]},{"header":{"parameterUnit":"m.s-1","parameterCategory":1,"la1":30.2991,"la2":30.254,"lo1":-89.0895,"lo2":-89.0444,"dy":0.0017,"dx":0.0017,"nx":28,"ny":28,"refTime":"2025-01-10T03:00:00:Z","depth":0,"parameterNumber":3,"parameterNumberName":"V-component_of_WINDS"},"data":[0,0,0,0,0,0,0,0,0,0,0,0,0,0,0,0,0,0,0,0,0,0,0,0,0,0,0,0,0,0,0,0,0,0,0,0,0,0,0,0,0,0,0,0,0,0,0,0,0,0,0,0,0,0,0,0,0,0,-4.9912,-4.9913,0,-5.0072,-5.0074,-5.0076,-5.0062,-5.006,-5.0058,-5.0055,-5.0218,-5.0224,-5.023,0,0,0,0,0,0,0,0,0,0,0,0,0,-4.959,-4.9596,-4.9911,-4.9913,-4.9915,-5.0072,-5.0074,-5.0076,-5.0063,-5.006,-5.0057,-5.0054,-5.0215,-5.0223,-5.0231,0,0,0,0,0,0,0,0,0,0,0,0,0,-4.9738,-4.9598,-4.9911,-4.9928,-4.9931,-5.0072,-5.0074,-5.0077,-5.0064,-5.006,-5.0056,-5.0053,-5.0213,-5.0222,-5.0232,-5.0366,0,0,-5.0262,-5.0267,0,0,0,0,0,0,0,0,-4.973,-4.975,-4.9923,-4.9927,-4.993,-5.0044,-5.002,-5.0174,-5.0064,-5.0013,-5.0055,-5.0051,-5.0162,-5.0176,-5.0214,-5.0374,-5.0381,-5.0263,-5.0269,-5.0273,-5.0276,0,0,0,0,0,0,0,-4.972,-4.9743,-4.9975,-4.9926,-4.993,-4.9926,-4.9943,-5.0049,-5.0106,-5.0017,-5.0017,-5.0036,-5.0164,-5.0205,-5.0218,-5.0383,-5.0263,-5.0272,-5.0278,-5.0282,-5.066,-5.0664,0,0,0,0,0,0,-4.9706,-4.9735,-4.997,-4.998,-4.9819,-4.9935,-4.9954,-5.0011,-5.0105,-5.0116,-5.0039,-5.0035,-5.019,-5.0207,-5.0224,-5.0387,-5.0273,-5.0283,-5.0288,-5.0656,-5.0661,-5.0665,0,0,0,0,0,0,-4.9699,-4.9727,-4.9963,-4.9857,-4.9887,-4.9944,-5.0008,-5.0016,-5.0057,-5.0121,-5.0131,-5.0071,-5.0188,-5.021,-5.0331,-5.0392,-5.0287,-5.0296,-5.0651,-5.0658,-5.0663,-5.0714,0,0,0,0,0,0,-4.969,-4.9725,-4.9777,-4.9859,-4.9893,-5.0069,-5.0012,-5.0022,-5.0075,-5.0071,-5.0154,-5.0164,-5.0186,-5.0316,-5.0341,-5.0404,-5.0304,-5.0646,-5.0654,-5.0661,-5.0707,-5.0721,-5.0733,0,0,0,0,0,-4.9679,-4.9784,-4.978,-4.9808,-4.9959,-5.0072,-5.0092,-5.0116,-5.008,-5.0132,-5.0173,-5.0161,-5.0382,-5.0329,-5.0356,-5.0423,-5.0642,-5.0652,-5.0661,-5.0701,-5.0719,-5.0733,0,0,0,0,0,0,-4.9708,-4.9795,-4.9791,-4.9926,-4.9992,-5.007,-5.0137,-5.0134,-5.021,-5.0203,-5.0229,-5.0248,-5.037,-5.0409,-5.0349,-5.0558,-5.0507,-5.0522,-5.0528,-5.0545,-5.0558,-5.0546,-5.0312,0,0,0,0,0,-4.973,-4.9815,-4.9887,-4.9999,-5.0033,-5.0079,-5.0129,-5.0143,-5.0211,-5.0239,-5.0289,-5.0355,-5.0439,-5.0494,-5.0575,-5.0712,-5.073,-5.0772,-5.0785,-5.0795,-5.0808,-5.0884,-5.0903,-5.0696,-5.0696,-5.0696,0,0,-4.9777,-4.9835,-4.9887,-5.0007,-5.0059,-5.0146,-5.0103,-5.0197,-5.0262,-5.0253,-5.0371,-5.041,-5.0485,-5.0615,-5.0675,-5.0651,-5.0869,-5.0807,-5.0815,-5.0823,-5.0895,-5.0915,-5.0932,-5.0702,-5.0701,-5.07,0,0,-4.9906,-4.9959,-5.0059,-5.0113,-5.0193,-5.0223,-5.0247,-5.0326,-5.0351,-5.047,-5.0465,-5.0542,-5.0686,-5.0741,-5.0787,-5.0937,-5.0929,-5.0963,-5.1031,-5.1104,-5.1121,-5.1135,-5.1189,-5.1208,-5.0975,-5.0976,-5.0976,0,-4.9954,-5.0086,-5.011,-5.0206,-5.0258,-5.0255,-5.0356,-5.0406,-5.0508,-5.0544,-5.0516,-5.0698,-5.0748,-5.0891,-5.0927,-5.0965,-5.0993,-5.0954,-5.1116,-5.1131,-5.1145,-5.1197,-5.1217,-5.0979,-5.0979,-5.0978,-5.0978,0,-5.0141,-5.0232,-5.0303,-5.0403,-5.0463,-5.0561,-5.0599,-5.0657,-5.0665,-5.0697,-5.0818,-5.0879,-5.0972,-5.1007,-5.1015,-5.1151,-5.1133,-5.1111,-5.106,-5.1168,-5.1217,-5.1237,-5.0984,-5.0983,-5.0982,-5.0981,0,0,-5.0294,-5.0406,-5.0431,-5.0477,-5.0565,-5.0636,-5.0732,-5.0824,-5.0874,-5.0944,-5.1026,-5.1148,-5.1128,-5.118,-5.1194,-5.1258,-5.1373,-5.1228,-5.123,-5.1253,-5.1526,-5.1543,-5.1566,-5.1368,-5.1372,-5.1375,-5.152,0,-5.0433,-5.0606,-5.063,-5.0782,-5.0867,-5.0865,-5.0949,-5.1012,-5.1045,-5.1121,-5.1157,-5.1244,-5.121,-5.1242,-5.1305,-5.1346,-5.1429,-5.1336,-5.1444,-5.1448,-5.1426,-5.1591,-5.1609,-5.1743,-5.1539,-5.1543,-5.1545,0,-5.0618,-5.0694,-5.0855,-5.0932,-5.0968,-5.1044,-5.113,-5.1203,-5.1274,-5.1293,-5.1352,-5.1358,-5.1458,-5.1403,-5.154,-5.1476,-5.1522,-5.1548,-5.1554,-5.1565,-5.1503,-5.1607,-5.1786,-5.1807,-5.1575,-5.1573,-5.1571,0,-5.0714,-5.0857,-5.0971,-5.101,-5.1102,-5.1155,-5.1196,-5.1263,-5.1317,-5.1392,-5.1427,-5.1512,-5.1558,-5.1624,-5.1652,-5.161,-5.1788,-5.1735,-5.1807,-5.1806,-5.1845,-5.1842,-5.2034,-5.1874,-5.1873,-5.1873,-5.1872,0,-5.0866,-5.0965,-5.1016,-5.1086,-5.1197,-5.1223,-5.1331,-5.137,-5.143,-5.1507,-5.151,-5.1583,-5.1616,-5.1693,-5.1716,-5.1826,-5.1847,-5.1865,-5.187,-5.1866,-5.1863,-5.1896,-5.1887,-5.1878,-5.1877,-5.1876,-5.1875,0,-5.0992,-5.103,-5.1155,-5.1232,-5.1254,-5.1332,-5.1397,-5.1465,-5.1497,-5.1596,-5.162,-5.1671,-5.1762,-5.1797,-5.1908,-5.1923,-5.2051,-5.2048,-5.2027,-5.2029,-5.2098,-5.2091,-5.2318,-5.235,-5.2168,-5.217,-5.2171,0,-5.1087,-5.1163,-5.1249,-5.1301,-5.1344,-5.1428,-5.1483,-5.1512,-5.1569,-5.1655,-5.1713,-5.1804,-5.1879,-5.2024,-5.2071,-5.2155,-5.2155,-5.2229,-5.2168,-5.216,-5.2156,-5.2152,-5.2159,-5.224,-5.2242,-5.2243,-5.2245,0,-5.1252,-5.1267,-5.1347,-5.1433,-5.1499,-5.1568,-5.1635,-5.1678,-5.1716,-5.178,-5.1874,-5.1932,-5.2046,-5.2136,-5.2223,-5.2264,-5.2261,-5.2263,-5.2284,-5.2281,-5.2265,-5.2275,-5.2058,-5.2258,-5.2257,-5.2256,-5.2255,-5.2254,-5.1366,-5.1433,-5.1504,-5.1592,-5.1646,-5.1709,-5.1776,-5.1817,-5.1896,-5.1992,-5.2004,-5.2104,-5.2173,-5.229,-5.2335,-5.2413,-5.2393,-5.2424,-5.2432,-5.2439,-5.2444,-5.2253,-5.2429,-5.2429,-5.2428,-5.2428,-5.2428,0,-5.1531,-5.1577,-5.1658,-5.1752,-5.1821,-5.1813,-5.1886,-5.1945,-5.2034,-5.2098,-5.2171,-5.2279,-5.2367,-5.242,-5.2508,-5.256,-5.2561,-5.2582,-5.2579,-5.2588,-5.2456,-5.243,-5.258,-5.258,-5.258,-5.258,-5.258,-5.258,-5.1626,-5.1739,-5.1762,-5.1902,-5.1947,-5.2046,-5.2089,-5.2146,-5.2198,-5.2318,-5.2391,-5.2426,-5.2485,-5.2578,-5.2657,-5.2671,-5.2703,-5.2726,-5.2738,-5.2613,-5.2598,-5.2583,-5.2558,-5.2733,-5.2733,-5.2863,-5.2864,-5.2865]}]]